Mae Hong Son, Thailand

8:49 PM +07 on November 24, 2017 (GMT +0700)
Mae Hong Son

Weather History for VTCH - January, 2014

Change the Weather History Date:

Friday, January 17, 2014

  Actual Average Record
Temperature  
Mean Temperature 69 °F -  
Max Temperature 82 °F 88 °F - ()
Min Temperature 56 °F 57 °F - ()
Cooling Degree Days 4    
Growing Degree Days 19 (Base 50)    
Moisture  
Dew Point 59 °F    
Average Humidity 71    
Maximum Humidity 97    
Minimum Humidity 42    
Precipitation  
Precipitation 0.00 in 0.01 in - ()
Sea Level Pressure  
Sea Level Pressure 30.05 in    
Wind  
Wind Speed 1 mph ()    
Max Wind Speed 4 mph    
Max Gust Speed -    
Visibility 4.5 miles    
Events Fog    
T = Trace of Precipitation, MM = Missing Value Source: Averaged Metar Reports

Daily Weather History Graph

Daily Weather History Graph

Search for Another Location

Airport or City:

Trip Planner

Search our weather history database for the weather conditions in past years. The results will help you decide how hot, cold, wet, or windy it might be!

Date:

Astronomy

Jan. 17, 2014 Rise Set
Actual Time 7:04 AM +07 6:11 PM +07
Civil Twilight 6:41 AM +07 6:35 PM +07
Nautical Twilight 6:14 AM +07 7:01 PM +07
Astronomical Twilight 5:47 AM +07 7:28 PM +07
Moon 7:12 PM +07 (1/17) 7:29 AM +07 (1/17)
Length of Visible Light 11h 53m
Length of Day
11h 06m
Full, 99% of the Moon is Illuminated
Jan 17
Full
Jan 24
Last Quarter
Jan 31
New
Feb 7
First Quarter
Feb 15
Full

Hourly Weather History & Observations

Time (+07) Temp. Heat Index Dew Point Humidity Pressure Visibility Wind Dir Wind Speed Gust Speed Precip Events Conditions
1:00 AM 61 °F - 59 °F 91% 30.07 in 6 mi Calm Calm - -  
4:00 AM 59 °F - 58 °F 96% 30.06 in 4 mi Calm Calm - -   Mist
7:00 AM 57 °F - 56 °F 97% 30.09 in 0 mi Calm Calm - - Fog Heavy Fog
7:00 AM 57.2 °F - 55.4 °F 94% 30.09 in 0.1 mi Variable 1.2 mph - N/A Fog Fog
8:00 AM 57.2 °F - 55.4 °F 94% 30.12 in 0.1 mi Variable 1.2 mph - N/A Fog Fog
9:00 AM 59.0 °F - 57.2 °F 94% 30.12 in 0.3 mi Variable 1.2 mph - N/A Fog Fog
10:00 AM 61 °F - 59 °F 92% 30.15 in 1 mi Calm Calm - - Fog Light Fog
10:00 AM 62.6 °F - 57.2 °F 82% 30.15 in 2.2 mi Variable 1.2 mph - N/A   Mostly Cloudy
11:00 AM 68.0 °F - 57.2 °F 68% 30.12 in 6.2 mi SSW 3.5 mph - N/A   Partly Cloudy
12:00 PM 71.6 °F - 57.2 °F 60% 30.09 in 6.2 mi Variable 2.3 mph - N/A   Partly Cloudy
1:00 PM 73 °F - 62 °F 59% 30.05 in 7 mi Calm Calm - -   Partly Cloudy
1:00 PM 77.0 °F - 57.2 °F 50% 30.06 in 6.2 mi Variable 3.5 mph - N/A   Partly Cloudy
2:00 PM 80.6 °F 81.1 °F 59.0 °F 48% 30.01 in 6.2 mi Variable 3.5 mph - N/A   Partly Cloudy
3:00 PM 82.4 °F 82.0 °F 57.2 °F 42% 29.98 in 6.2 mi ESE 3.5 mph - N/A   Partly Cloudy
4:00 PM 81 °F - 64 °F 46% 29.94 in 9 mi Calm Calm - -   Scattered Clouds
4:00 PM 82.4 °F 82.0 °F 57.2 °F 42% 29.95 in 6.2 mi WSW 3.5 mph - N/A   Partly Cloudy
5:00 PM 82.4 °F 82.0 °F 57.2 °F 42% 29.95 in - Variable 2.3 mph - N/A   Partly Cloudy
7:00 PM 73 °F - 65 °F 69% 29.97 in 7 mi Calm Calm - -   Scattered Clouds
7:00 PM 71.6 °F - 59.0 °F 64% 29.98 in 6.2 mi ESE 3.5 mph - N/A   Partly Cloudy
10:00 PM 67 °F - 63 °F 81% 30.06 in 6 mi Calm Calm - -